| time (UTC) | temp C | wind direction | speed KPH | gust KPH | rain 1hr cm | rain 24hr cm | rain mn cm | humidity % | barometer mb |
| 20260507213321 | 30 | 332 | 3.2 | 14.5 | 0.00 | 0.00 | 0.00 | 77 | 1016.1 |
| 20260507212321 | 30 | 358 | 4.8 | 11.3 | 0.00 | 0.00 | 0.00 | 77 | 1016.1 |
| 20260507211336 | 30 | 282 | 8.0 | 16.1 | 0.00 | 0.00 | 0.00 | 79 | 1016.1 |
| 20260507210342 | 30 | 285 | 4.8 | 16.1 | 0.00 | 0.00 | 0.00 | 79 | 1016.3 |
| 20260507205324 | 31 | 298 | 8.0 | 12.9 | 0.00 | 0.00 | 0.00 | 78 | 1016.2 |
| 20260507204323 | 31 | 295 | 6.4 | 14.5 | 0.00 | 0.00 | 0.00 | 76 | 1016.4 |
| 20260507203319 | 31 | 280 | 1.6 | 11.3 | 0.00 | 0.00 | 0.00 | 76 | 1016.4 |
| 20260507202335 | 30 | 276 | 6.4 | 12.9 | 0.00 | 0.00 | 0.00 | 77 | 1016.5 |
| 20260507201330 | 31 | 17 | 0.0 | 8.0 | 0.00 | 0.00 | 0.00 | 75 | 1016.5 |
| 20260507200342 | 31 | 226 | 0.0 | 11.3 | 0.00 | 0.00 | 0.00 | 77 | 1016.5 |
| 20260507195324 | 31 | 270 | 3.2 | 11.3 | 0.00 | 0.00 | 0.00 | 77 | 1016.6 |
| 20260507194341 | 30 | 259 | 4.8 | 14.5 | 0.00 | 0.00 | 0.00 | 78 | 1016.7 |
| 20260507193320 | 31 | 349 | 3.2 | 11.3 | 0.00 | 0.00 | 0.00 | 78 | 1016.8 |
| 20260507192337 | 31 | 323 | 3.2 | 11.3 | 0.00 | 0.00 | 0.00 | 78 | 1016.8 |
| 20260507191332 | 30 | 18 | 3.2 | 14.5 | 0.00 | 0.00 | 0.00 | 80 | 1016.9 |
| 20260507190339 | 30 | 292 | 6.4 | 12.9 | 0.00 | 0.00 | 0.00 | 79 | 1017.1 |
| 20260507185345 | 30 | 308 | 9.7 | 16.1 | 0.00 | 0.00 | 0.00 | 80 | 1017.2 |
| 20260507184319 | 30 | 263 | 6.4 | 16.1 | 0.00 | 0.00 | 0.00 | 82 | 1017.3 |
| 20260507183335 | 30 | 268 | 8.0 | 14.5 | 0.00 | 0.00 | 0.00 | 80 | 1017.4 |
| 20260507182330 | 30 | 279 | 4.8 | 14.5 | 0.00 | 0.00 | 0.00 | 80 | 1017.4 |
| 20260507181329 | 30 | 284 | 9.7 | 16.1 | 0.00 | 0.00 | 0.00 | 80 | 1017.5 |
| 20260507180355 | 30 | 253 | 8.0 | 17.7 | 0.00 | 0.00 | 0.00 | 81 | 1017.7 |
| 20260507175317 | 30 | 309 | 8.0 | 19.3 | 0.00 | 0.00 | 0.00 | 80 | 1017.7 |
| 20260507174332 | 30 | 287 | 4.8 | 14.5 | 0.00 | 0.00 | 0.00 | 80 | 1017.9 |
| 20260507173332 | 30 | 326 | 6.4 | 16.1 | 0.00 | 0.00 | 0.00 | 80 | 1018.1 |
| 20260507172329 | 30 | 312 | 8.0 | 14.5 | 0.00 | 0.00 | 0.00 | 80 | 1018.2 |
| 20260507171324 | 30 | 246 | 6.4 | 14.5 | 0.00 | 0.00 | 0.00 | 81 | 1018.3 |
| 20260507170334 | 30 | 268 | 8.0 | 14.5 | 0.00 | 0.00 | 0.00 | 80 | 1018.4 |
| 20260507165336 | 30 | 262 | 4.8 | 12.9 | 0.00 | 0.00 | 0.00 | 80 | 1018.4 |
| 20260507164332 | 30 | 255 | 6.4 | 12.9 | 0.00 | 0.00 | 0.00 | 79 | 1018.5 |
| 20260507163331 | 30 | 222 | 6.4 | 14.5 | 0.00 | 0.00 | 0.00 | 80 | 1018.6 |
| 20260507162328 | 29 | 359 | 4.8 | 14.5 | 0.00 | 0.00 | 0.00 | 81 | 1018.8 |
| 20260507161324 | 30 | 238 | 6.4 | 12.9 | 0.00 | 0.00 | 0.00 | 82 | 1018.8 |
| 20260507160350 | 30 | 243 | 9.7 | 14.5 | 0.00 | 0.00 | 0.00 | 82 | 1018.8 |
| 20260507155336 | 30 | 352 | 3.2 | 12.9 | 0.00 | 0.00 | 0.00 | 83 | 1018.8 |
| 20260507154330 | 29 | 318 | 4.8 | 12.9 | 0.00 | 0.00 | 0.00 | 82 | 1018.8 |
| 20260507153326 | 29 | 280 | 4.8 | 12.9 | 0.00 | 0.00 | 0.00 | 84 | 1018.8 |
| 20260507152343 | 30 | 258 | 6.4 | 14.5 | 0.00 | 0.00 | 0.00 | 81 | 1018.8 |
| 20260507151322 | 30 | 322 | 4.8 | 11.3 | 0.00 | 0.00 | 0.00 | 82 | 1019.0 |
| 20260507150347 | 29 | 287 | 6.4 | 12.9 | 0.00 | 0.00 | 0.00 | 82 | 1019.0 |
| 20260507145330 | 29 | 309 | 6.4 | 14.5 | 0.00 | 0.00 | 0.00 | 83 | 1018.9 |
| 20260507144329 | 29 | 255 | 4.8 | 12.9 | 0.00 | 0.00 | 0.00 | 82 | 1018.9 |
| 20260507143325 | 29 | 315 | 6.4 | 12.9 | 0.00 | 0.00 | 0.00 | 82 | 1018.7 |
| 20260507142322 | 29 | 275 | 6.4 | 12.9 | 0.00 | 0.00 | 0.00 | 82 | 1018.6 |
| 20260507141321 | 29 | 269 | 6.4 | 12.9 | 0.00 | 0.00 | 0.00 | 83 | 1018.7 |
| 20260507140347 | 29 | 263 | 6.4 | 12.9 | 0.00 | 0.00 | 0.00 | 83 | 1018.7 |
| 20260507135331 | 29 | 274 | 3.2 | 14.5 | 0.00 | 0.00 | 0.00 | 81 | 1018.7 |
| 20260507134326 | 29 | 360 | 1.6 | 12.9 | 0.00 | 0.00 | 0.00 | 81 | 1018.6 |
| 20260507133326 | 29 | 247 | 6.4 | 9.7 | 0.00 | 0.00 | 0.00 | 82 | 1018.5 |
| 20260507132322 | 29 | 268 | 6.4 | 12.9 | 0.00 | 0.00 | 0.00 | 82 | 1018.4 |
| 20260507131318 | 29 | 300 | 0.0 | 11.3 | 0.00 | 0.00 | 0.00 | 82 | 1018.4 |
| 20260507130404 | 28 | 293 | 3.2 | 11.3 | 0.00 | 0.00 | 0.00 | 83 | 1018.2 |
| 20260507125330 | 28 | 283 | 4.8 | 12.9 | 0.00 | 0.00 | 0.00 | 83 | 1018.2 |
| 20260507124326 | 28 | 295 | 3.2 | 12.9 | 0.00 | 0.00 | 0.00 | 84 | 1018.1 |
| 20260507123343 | 28 | 350 | 4.8 | 11.3 | 0.00 | 0.00 | 0.00 | 85 | 1018.2 |
| 20260507122322 | 28 | 295 | 6.4 | 9.7 | 0.00 | 0.00 | 0.00 | 85 | 1018.0 |
| 20260507121317 | 28 | 288 | 6.4 | 11.3 | 0.00 | 0.00 | 0.00 | 84 | 1018.0 |
| 20260507120344 | 28 | 298 | 3.2 | 12.9 | 0.00 | 0.00 | 0.00 | 86 | 1018.0 |
| 20260507115346 | 27 | 273 | 0.0 | 8.0 | 0.00 | 0.00 | 0.00 | 87 | 1018.0 |
| 20260507114325 | 27 | 299 | 3.2 | 9.7 | 0.00 | 0.00 | 0.00 | 87 | 1018.0 |
| 20260507113321 | 27 | 288 | 3.2 | 12.9 | 0.00 | 0.00 | 0.00 | 88 | 1017.8 |
| 20260507112318 | 26 | 264 | 3.2 | 12.9 | 0.00 | 0.00 | 0.00 | 88 | 1017.4 |
| 20260507111317 | 26 | 276 | 8.0 | 14.5 | 0.00 | 0.00 | 0.00 | 88 | 1017.4 |
| 20260507110344 | 26 | 330 | 4.8 | 16.1 | 0.00 | 0.00 | 0.00 | 88 | 1017.3 |
| 20260507105326 | 26 | 250 | 6.4 | 14.5 | 0.00 | 0.00 | 0.00 | 88 | 1017.2 |
| 20260507104322 | 26 | 300 | 8.0 | 14.5 | 0.00 | 0.00 | 0.00 | 88 | 1017.0 |
| 20260507103321 | 26 | 324 | 8.0 | 16.1 | 0.00 | 0.00 | 0.00 | 88 | 1017.0 |
| 20260507102318 | 26 | 323 | 6.4 | 17.7 | 0.00 | 0.00 | 0.00 | 88 | 1016.8 |
| 20260507101333 | 26 | 247 | 6.4 | 19.3 | 0.00 | 0.00 | 0.00 | 88 | 1016.6 |
| 20260507100343 | 26 | 270 | 8.0 | 16.1 | 0.00 | 0.00 | 0.00 | 87 | 1016.6 |
| 20260507095326 | 26 | 263 | 11.3 | 19.3 | 0.00 | 0.00 | 0.00 | 87 | 1016.6 |
| 20260507094322 | 26 | 274 | 6.4 | 19.3 | 0.00 | 0.00 | 0.00 | 87 | 1016.6 |
| 20260507093338 | 26 | 271 | 9.7 | 17.7 | 0.00 | 0.00 | 0.00 | 87 | 1016.4 |
| 20260507092336 | 26 | 275 | 9.7 | 20.9 | 0.00 | 0.00 | 0.00 | 87 | 1016.3 |
| 20260507091331 | 26 | 265 | 8.0 | 17.7 | 0.00 | 0.00 | 0.00 | 87 | 1016.4 |
| 20260507090357 | 26 | 263 | 6.4 | 17.7 | 0.00 | 0.00 | 0.00 | 87 | 1016.3 |
| 20260507085319 | 26 | 262 | 12.9 | 20.9 | 0.00 | 0.00 | 0.00 | 86 | 1016.3 |
| 20260507084317 | 26 | 265 | 12.9 | 22.5 | 0.00 | 0.00 | 0.00 | 86 | 1016.2 |
| 20260507083332 | 26 | 253 | 8.0 | 20.9 | 0.00 | 0.00 | 0.00 | 86 | 1016.3 |
| 20260507082327 | 26 | 282 | 8.0 | 24.1 | 0.00 | 0.00 | 0.00 | 86 | 1016.2 |
| 20260507081322 | 26 | 284 | 8.0 | 24.1 | 0.00 | 0.00 | 0.00 | 87 | 1016.3 |
| 20260507080333 | 26 | 254 | 9.7 | 22.5 | 0.00 | 0.00 | 0.00 | 85 | 1016.4 |
| 20260507075335 | 26 | 253 | 11.3 | 22.5 | 0.00 | 0.00 | 0.00 | 85 | 1016.5 |
| 20260507074330 | 26 | 261 | 12.9 | 24.1 | 0.00 | 0.00 | 0.00 | 85 | 1016.5 |
| 20260507073330 | 26 | 279 | 12.9 | 20.9 | 0.00 | 0.00 | 0.00 | 86 | 1016.4 |
| 20260507072326 | 26 | 254 | 11.3 | 19.3 | 0.00 | 0.00 | 0.00 | 86 | 1016.5 |
| 20260507071341 | 26 | 255 | 12.9 | 22.5 | 0.00 | 0.00 | 0.00 | 86 | 1016.8 |
| 20260507070407 | 26 | 282 | 12.9 | 20.9 | 0.00 | 0.00 | 0.00 | 86 | 1017.0 |
| 20260507065332 | 26 | 261 | 11.3 | 22.5 | 0.00 | 0.00 | 0.00 | 86 | 1017.0 |
| 20260507064328 | 26 | 270 | 9.7 | 19.3 | 0.00 | 0.00 | 0.00 | 86 | 1017.1 |
| 20260507063323 | 26 | 263 | 11.3 | 19.3 | 0.00 | 0.00 | 0.00 | 86 | 1017.2 |
| 20260507062318 | 26 | 274 | 12.9 | 20.9 | 0.00 | 0.00 | 0.00 | 84 | 1017.4 |
| 20260507061357 | 26 | 258 | 11.3 | 20.9 | 0.00 | 0.00 | 0.00 | 86 | 1017.4 |
| 20260507060342 | 26 | 251 | 16.1 | 24.1 | 0.00 | 0.00 | 0.00 | 85 | 1017.2 |
| 20260507055324 | 26 | 267 | 14.5 | 22.5 | 0.00 | 0.00 | 0.00 | 86 | 1017.5 |
| 20260507054339 | 26 | 264 | 8.0 | 19.3 | 0.00 | 0.00 | 0.00 | 85 | 1017.6 |
| 20260507053336 | 26 | 292 | 9.7 | 22.5 | 0.00 | 0.00 | 0.00 | 85 | 1017.8 |
| 20260507052332 | 26 | 259 | 12.9 | 20.9 | 0.00 | 0.00 | 0.00 | 85 | 1017.9 |
| 20260507051327 | 26 | 219 | 9.7 | 19.3 | 0.00 | 0.00 | 0.00 | 84 | 1017.9 |
| 20260507050337 | 26 | 243 | 9.7 | 19.3 | 0.00 | 0.00 | 0.00 | 85 | 1018.0 |
| 20260507045339 | 26 | 255 | 11.3 | 19.3 | 0.00 | 0.00 | 0.00 | 85 | 1018.1 |
| 20260507044333 | 26 | 248 | 9.7 | 17.7 | 0.00 | 0.00 | 0.00 | 84 | 1018.2 |
| 20260507043329 | 26 | 254 | 12.9 | 19.3 | 0.00 | 0.00 | 0.00 | 84 | 1018.3 |
| 20260507042329 | 26 | 263 | 11.3 | 19.3 | 0.00 | 0.00 | 0.00 | 84 | 1018.3 |
| 20260507041324 | 26 | 262 | 11.3 | 17.7 | 0.00 | 0.00 | 0.00 | 85 | 1018.4 |
| 20260507040331 | 26 | 227 | 11.3 | 19.3 | 0.00 | 0.00 | 0.00 | 85 | 1018.6 |
| 20260507035354 | 27 | 288 | 11.3 | 20.9 | 0.00 | 0.00 | 0.00 | 85 | 1018.5 |
| 20260507034333 | 27 | 276 | 14.5 | 22.5 | 0.00 | 0.00 | 0.00 | 85 | 1018.4 |
| 20260507033328 | 27 | 237 | 11.3 | 17.7 | 0.00 | 0.00 | 0.00 | 85 | 1018.4 |
| 20260507032439 | 27 | 236 | 11.3 | 19.3 | 0.00 | 0.00 | 0.00 | 85 | 1018.4 |
| 20260507031325 | 27 | 247 | 9.7 | 16.1 | 0.00 | 0.00 | 0.00 | 85 | 1018.5 |
| 20260507030332 | 27 | 237 | 8.0 | 17.7 | 0.00 | 0.00 | 0.00 | 85 | 1018.3 |
| 20260507025334 | 27 | 212 | 11.3 | 17.7 | 0.00 | 0.00 | 0.00 | 85 | 1018.2 |
| 20260507024329 | 27 | 224 | 8.0 | 20.9 | 0.00 | 0.00 | 0.00 | 85 | 1018.0 |
| 20260507023331 | 27 | 255 | 6.4 | 17.7 | 0.00 | 0.00 | 0.00 | 85 | 1018.0 |
| 20260507022328 | 27 | 238 | 8.0 | 17.7 | 0.00 | 0.00 | 0.00 | 85 | 1018.0 |
| 20260507021322 | 27 | 217 | 9.7 | 19.3 | 0.00 | 0.00 | 0.00 | 85 | 1018.0 |
| 20260507020333 | 27 | 222 | 8.0 | 16.1 | 0.00 | 0.00 | 0.00 | 85 | 1017.9 |
| 20260507015355 | 27 | 239 | 8.0 | 17.7 | 0.00 | 0.00 | 0.00 | 85 | 1017.7 |
| 20260507014329 | 27 | 220 | 8.0 | 16.1 | 0.00 | 0.00 | 0.00 | 85 | 1017.8 |
| 20260507013325 | 27 | 232 | 8.0 | 16.1 | 0.00 | 0.00 | 0.00 | 85 | 1017.9 |
| 20260507012326 | 27 | 268 | 3.2 | 14.5 | 0.00 | 0.00 | 0.00 | 85 | 1017.7 |
| 20260507011321 | 27 | 241 | 6.4 | 12.9 | 0.00 | 0.00 | 0.00 | 84 | 1017.7 |
| 20260507010348 | 27 | 265 | 6.4 | 12.9 | 0.00 | 0.00 | 0.00 | 85 | 1017.7 |
| 20260507005335 | 27 | 234 | 6.4 | 12.9 | 0.00 | 0.00 | 0.00 | 84 | 1017.8 |
| 20260507004330 | 27 | 236 | 6.4 | 12.9 | 0.00 | 0.00 | 0.00 | 84 | 1017.9 |
| 20260507003326 | 27 | 251 | 4.8 | 11.3 | 0.00 | 0.00 | 0.00 | 84 | 1017.9 |
| 20260507002326 | 27 | 274 | 4.8 | 12.9 | 0.00 | 0.00 | 0.00 | 84 | 1017.6 |
| 20260507001322 | 27 | 273 | 6.4 | 14.5 | 0.00 | 0.00 | 0.00 | 84 | 1017.5 |
| 20260507000350 | 27 | 255 | 6.4 | 9.7 | 0.00 | 0.00 | 0.00 | 83 | 1017.6 |
| 20260506235330 | 27 | 292 | 3.2 | 12.9 | 0.00 | 0.00 | 0.00 | 83 | 1017.7 |
| 20260506234330 | 27 | 243 | 3.2 | 11.3 | 0.00 | 0.00 | 0.00 | 83 | 1017.6 |
| 20260506233325 | 28 | 246 | 4.8 | 12.9 | 0.00 | 0.00 | 0.00 | 82 | 1017.5 |
| 20260506232321 | 28 | 276 | 4.8 | 12.9 | 0.00 | 0.00 | 0.00 | 81 | 1017.5 |
| 20260506231320 | 28 | 270 | 3.2 | 14.5 | 0.00 | 0.00 | 0.00 | 81 | 1017.5 |
| 20260506230346 | 28 | 303 | 4.8 | 12.9 | 0.00 | 0.00 | 0.00 | 80 | 1017.4 |
| 20260506225329 | 28 | 285 | 4.8 | 12.9 | 0.00 | 0.00 | 0.00 | 80 | 1017.4 |
| 20260506224324 | 28 | 332 | 4.8 | 12.9 | 0.00 | 0.00 | 0.00 | 80 | 1017.3 |
| 20260506223324 | 28 | 254 | 6.4 | 12.9 | 0.00 | 0.00 | 0.00 | 79 | 1017.2 |
| 20260506222340 | 29 | 264 | 1.6 | 11.3 | 0.00 | 0.00 | 0.00 | 79 | 1017.1 |
| 20260506221335 | 29 | 278 | 1.6 | 12.9 | 0.00 | 0.00 | 0.00 | 80 | 1017.1 |
| 20260506220346 | 29 | 261 | 3.2 | 11.3 | 0.00 | 0.00 | 0.00 | 79 | 1017.0 |
| 20260506215329 | 29 | 286 | 1.6 | 12.9 | 0.00 | 0.00 | 0.00 | 79 | 1017.0 |
| 20260506214324 | 29 | 250 | 6.4 | 11.3 | 0.00 | 0.00 | 0.00 | 79 | 1017.0 |